SR5NLK-1 Weather Reports


time (UTC)temp
F
wind
direction
speed
knots
gust
knots
rain 1hr
in
rain 24hr
in
rain mn
in
humidity
%
barometer
mb
20260901110948 75 270 7.8 14.8 0.00 0.04 0.00 56 1016.2
20260901105947 72 247 5.2 17.4 0.00 0.04 0.00 61 1044.5
20260901105447 71 247 7.8 14.8 0.00 0.04 0.00 62 1073.7
20260901104947 71 270 12.2 15.6 0.00 0.04 0.00 61 1062.7
20260901104447 71 247 15.6 16.5 0.00 0.04 0.00 60 1051.6
20260901104246 70 247 9.6 16.5 0.00 0.04 0.00 60 1081.5
20260901103947 71 225 16.5 16.5 0.00 0.04 0.00 59 1063.9
20260901103447 71 202 12.2 19.1 0.00 0.04 0.00 57 1073.7
20260901102947 72 202 14.8 17.4 0.00 0.04 0.00 56 1046.9
20260901102447 72 225 10.4 14.8 0.00 0.04 0.00 56 1019.3
20260901101947 73 292 7.8 15.6 0.00 0.04 0.00 54 1059.5
20260901101447 74 247 7.8 12.2 0.00 0.04 0.00 53 1052.2
20260901100946 75 202 10.4 11.3 0.00 0.04 0.00 52 1073.6
20260901100447 76 157 4.3 14.8 0.00 0.04 0.00 52 1040.6
20260901095947 76 202 9.6 14.8 0.00 0.04 0.00 53 1056.4
20260901095447 75 157 4.3 14.8 0.00 0.04 0.00 53 1062.7
20260901094947 75 270 8.7 17.4 0.00 0.04 0.00 52 1024.0
20260901094447 75 292 5.2 18.2 0.00 0.04 0.00 52 1065.8
20260901093947 75 315 7.8 14.8 0.00 0.04 0.00 51 1062.7
20260901093646 75 270 8.7 12.2 0.00 0.04 0.00 54 1075.2
20260901093447 75 225 8.7 11.3 0.00 0.04 0.00 54 1078.4
20260901092947 74 247 7.0 20.0 0.00 0.04 0.00 54 1049.2
20260901092447 73 247 13.0 18.2 0.00 0.04 0.00 55 1069.0
20260901091947 73 247 8.7 17.4 0.00 0.04 0.00 55 1027.2
20260901091447 75 270 14.8 14.8 0.00 0.04 0.00 53 1050.1
20260901090947 75 270 5.2 16.5 0.00 0.04 0.00 52 1072.1
20260901090447 76 202 12.2 16.5 0.00 0.04 0.00 53 1080.5
20260901090346 76 180 3.5 17.4 0.00 0.04 0.00 53 1069.0
20260901085947 76 225 4.3 17.4 0.00 0.04 0.00 53 1073.7
20260901085447 76 225 9.6 17.4 0.00 0.04 0.00 54 1069.0
20260901084947 75 225 3.5 12.2 0.00 0.04 0.00 55 1053.2
20260901084447 74 292 4.3 13.0 0.00 0.04 0.00 54 1011.4
20260901083947 75 270 7.0 10.4 0.00 0.04 0.00 54 1087.8
20260901083447 75 247 10.4 18.2 0.00 0.04 0.00 53 1050.1
20260901083046 76 270 14.8 18.2 0.00 0.04 0.00 52 1069.0
20260901082947 76 270 18.2 18.2 0.00 0.04 0.00 51 1062.7
20260901082447 77 202 13.0 20.0 0.00 0.04 0.00 50 1053.2
20260901081947 78 270 7.0 16.5 0.00 0.04 0.00 51 1072.1
20260901081447 78 315 9.6 16.5 0.00 0.04 0.00 51 1061.1
20260901080947 78 247 12.2 14.8 0.00 0.04 0.00 51 1025.6
20260901080447 79 247 13.0 18.2 0.00 0.04 0.00 49 1075.2
20260901075947 80 225 10.4 16.5 0.00 0.04 0.00 49 1046.9
20260901075746 80 270 8.7 16.5 0.00 0.04 0.00 49 1064.2
20260901075447 80 180 9.6 18.2 0.00 0.04 0.00 49 1050.1
20260901074947 80 270 14.8 17.4 0.00 0.04 0.00 50 1056.4
20260901074447 80 180 12.2 12.2 0.00 0.04 0.00 51 1040.6
20260901073947 80 247 7.0 13.9 0.00 0.04 0.00 51 1065.9
20260901073447 80 270 5.2 14.8 0.00 0.04 0.00 52 1017.7
20260901072947 80 270 3.5 13.9 0.00 0.04 0.00 51 1069.0
20260901072446 80 247 5.2 15.6 0.00 0.04 0.00 50 1059.5
20260901071947 81 180 10.4 15.6 0.00 0.04 0.00 51 1056.0
20260901071447 80 225 7.8 10.4 0.00 0.04 0.00 53 1025.6
20260901070947 80 270 8.7 12.2 0.00 0.04 0.00 52 1078.4
20260901070447 80 202 5.2 16.5 0.00 0.04 0.00 53 1059.5
20260901065947 80 247 13.0 13.0 0.00 0.04 0.00 54 1059.5
20260901065447 79 225 1.7 9.6 0.00 0.04 0.00 56 1062.7
20260901065146 79 225 7.0 11.3 0.00 0.04 0.00 57 1069.0
20260901064947 79 247 3.5 11.3 0.00 0.04 0.00 57 1061.1
20260901063947 76 225 7.0 8.7 0.00 0.04 0.00 63 1013.0
20260901062947 72 225 0.9 8.7 0.00 0.04 0.00 66 1020.9
20260901062447 72 247 3.5 15.6 0.00 0.04 0.00 63 1081.5
20260901061947 74 247 7.0 16.5 0.00 0.04 0.00 61 1043.8
20260901061846 75 247 9.6 16.5 0.00 0.04 0.00 61 1054.8
20260901061447 76 247 2.6 11.3 0.00 0.04 0.00 63 1053.2
20260901060947 75 202 8.7 12.2 0.00 0.04 0.00 65 1065.8
20260901060447 75 202 3.5 15.6 0.00 0.04 0.00 65 1019.3
20260901055947 75 225 3.5 13.9 0.00 0.04 0.00 65 1040.6
20260901055447 76 202 7.0 10.4 0.00 0.04 0.00 66 1078.4
20260901054947 75 247 9.6 15.6 0.00 0.04 0.00 68 1022.5
20260901054546 75 202 2.6 10.4 0.00 0.04 0.00 71 1009.9
20260901054447 74 292 6.1 10.4 0.00 0.04 0.00 73 1070.2
20260901053947 72 247 1.7 9.6 0.00 0.04 0.00 77 1013.0
20260901053447 70 225 6.1 10.4 0.00 0.04 0.00 80 1070.5
20260901052947 69 202 7.0 13.9 0.00 0.04 0.00 82 1062.7
20260901052447 68 247 3.5 10.4 0.00 0.04 0.00 83 1091.0
20260901051447 67 202 5.2 10.4 0.00 0.04 0.00 88 1061.1
20260901051247 67 180 3.5 9.6 0.00 0.04 0.00 90 1068.9
20260901050947 67 225 7.8 9.6 0.00 0.04 0.00 91 1075.3
20260901050447 66 157 1.7 8.7 0.00 0.04 0.00 93 1069.0
20260901045947 64 247 3.5 7.0 0.00 0.04 0.00 92 1056.4
20260901045447 62 225 4.3 9.6 0.00 0.04 0.00 91 1065.8
20260901044947 62 225 4.3 8.7 0.00 0.04 0.00 91 1059.5
20260901044447 61 225 3.5 8.7 0.00 0.04 0.00 91 1070.5
20260901043947 61 225 6.1 9.6 0.00 0.04 0.00 91 1076.8
20260901043447 61 225 7.8 8.7 0.00 0.04 0.00 91 1078.4
20260901042947 61 202 4.3 8.7 0.00 0.04 0.00 91 1076.8
20260901042448 61 202 8.7 9.6 0.00 0.04 0.00 91 1072.1
20260901041948 61 202 6.1 10.4 0.00 0.04 0.00 91 1068.9
20260901041448 61 202 8.7 10.4 0.00 0.04 0.00 91 1056.4
20260901040948 61 202 7.0 8.7 0.00 0.04 0.00 91 1069.0
20260901040647 61 270 7.8 8.7 0.00 0.04 0.00 91 1095.6
20260901040448 61 225 3.5 7.0 0.00 0.04 0.00 91 1028.0
20260901035948 61 202 3.5 8.7 0.00 0.04 0.00 91 1028.7
20260901035448 61 202 7.0 7.0 0.00 0.04 0.00 91 1072.1
20260901034948 61 202 5.2 6.1 0.00 0.04 0.00 91 1059.5
20260901034448 61 180 5.2 7.0 0.00 0.04 0.00 91 1059.5
20260901033948 61 225 3.5 5.2 0.00 0.04 0.00 91 1053.3
20260901033448 62 202 6.1 6.1 0.00 0.04 0.00 91 1065.8
20260901033347 62 247 4.3 6.1 0.00 0.04 0.00 91 994.9
20260901032948 62 202 3.5 6.1 0.00 0.04 0.00 91 1046.9
20260901032448 62 202 1.7 8.7 0.00 0.04 0.00 91 1073.7
20260901031948 62 180 2.6 7.0 0.00 0.04 0.00 91 1078.3
20260901031448 62 225 3.5 4.3 0.00 0.04 0.00 91 1059.5
20260901030948 62 180 1.7 5.2 0.00 0.04 0.00 91 1065.8
20260901030448 62 180 1.7 4.3 0.00 0.04 0.00 91 1065.8
20260901030047 62 225 0.9 5.2 0.00 0.04 0.00 91 1050.0
20260901025948 62 180 0.9 5.2 0.00 0.04 0.00 91 1050.0
20260901025448 62 180 3.5 6.1 0.00 0.04 0.00 91 1056.4
20260901024948 62 225 4.3 7.8 0.00 0.04 0.00 91 1068.9
20260901024448 62 202 7.8 8.7 0.00 0.04 0.00 91 1034.4
20260901023948 62 225 3.5 5.2 0.00 0.04 0.00 91 1059.5
20260901023448 62 225 5.2 5.2 0.00 0.04 0.00 91 1064.2
20260901022948 62 202 4.3 7.0 0.00 0.04 0.00 91 1072.1
20260901022747 62 202 1.7 7.0 0.00 0.04 0.00 91 1011.4
20260901022448 62 202 7.0 7.0 0.00 0.04 0.00 91 1070.8
20260901022022 62 225 1.7 4.3 0.00 0.04 0.00 91 1078.0
20260901021948 62 225 1.7 4.3 0.00 0.04 0.00 91 1078.0
20260901021448 62 225 1.7 5.2 0.00 0.04 0.00 91 1065.8
20260901020948 62 225 3.5 4.3 0.00 0.04 0.00 91 1062.7
20260901020448 62 202 3.5 3.5 0.00 0.04 0.00 90 1031.8
20260901015948 62 225 2.6 4.3 0.00 0.04 0.00 90 1065.8
20260901015447 62 202 1.7 4.3 0.00 0.04 0.00 90 1065.8
20260901014948 62 202 2.6 5.2 0.00 0.04 0.00 90 1065.8
20260901014448 62 180 1.7 28.7 0.00 0.04 0.00 90 1065.8
20260901013948 62 247 3.5 4.3 0.00 0.04 0.00 90 1068.9
20260901013448 62 180 4.3 5.2 0.00 0.04 0.00 90 1062.6
20260901012948 62 180 2.6 4.3 0.00 0.04 0.00 90 1069.0
20260901012448 62 202 1.7 3.5 0.00 0.04 0.00 90 1078.4
20260901012147 62 180 0.9 3.5 0.00 0.04 0.00 90 1062.7
20260901011948 62 180 0.9 3.5 0.00 0.04 0.00 90 1076.8
20260901011448 62 202 0.9 3.5 0.00 0.04 0.00 90 1069.0
20260901010948 62 180 1.7 3.5 0.00 0.04 0.00 90 1061.3
20260901010448 62 202 1.7 4.3 0.00 0.04 0.00 90 1023.3
20260901005948 62 157 2.6 3.5 0.00 0.04 0.00 90 1064.2
20260901005448 62 157 0.9 4.3 0.00 0.04 0.00 90 1069.0
20260901004948 63 180 0.9 3.5 0.00 0.04 0.00 90 1056.4
20260901004847 63 157 1.7 3.5 0.00 0.04 0.00 90 1079.9
20260901004448 63 180 0.0 3.5 0.00 0.04 0.00 90 1056.4
20260901003948 63 135 0.9 3.5 0.00 0.04 0.00 90 1038.2
20260901003448 63 202 0.9 4.3 0.00 0.04 0.00 90 1019.3
20260901002948 63 180 4.3 5.2 0.00 0.04 0.00 90 1070.5
20260901002448 63 202 2.6 4.3 0.00 0.04 0.00 90 1062.7
20260901001948 63 180 0.9 2.6 0.00 0.04 0.00 90 1062.7
20260901001547 63 180 1.7 4.3 0.00 0.04 0.00 90 1018.9
20260901001448 63 157 1.7 4.3 0.00 0.04 0.00 90 1068.9
20260901000948 63 202 0.0 4.3 0.00 0.04 0.00 90 1064.5
20260901000450 63 180 1.7 3.5 0.00 0.04 0.00 90 1067.4
20260831235948 63 157 0.9 3.5 0.00 0.04 0.00 90 1072.1
20260831235448 63 180 3.5 3.5 0.00 0.04 0.00 90 1018.4
20260831234948 63 180 1.7 3.5 0.00 0.04 0.00 90 1062.6
20260831234448 63 180 0.9 3.5 0.00 0.04 0.00 90 1035.1
20260831234247 63 157 2.6 3.5 0.00 0.04 0.00 90 1084.7
20260831233948 63 157 3.5 3.5 0.00 0.04 0.00 90 1032.8
20260831233448 63 157 3.5 5.2 0.00 0.04 0.00 90 1075.2
20260831232948 63 202 4.3 5.2 0.00 0.04 0.00 89 1076.8
20260831232448 63 180 2.6 5.2 0.00 0.04 0.00 89 1062.7
20260831231948 63 225 2.6 5.2 0.00 0.04 0.00 89 1072.1
20260831231448 63 225 1.7 5.2 0.00 0.04 0.00 89 1062.7
20260831230947 63 180 3.5 4.3 0.00 0.04 0.00 89 1062.7
20260831230448 63 157 2.6 3.5 0.00 0.04 0.00 89 1067.4
20260831225948 63 225 0.9 3.5 0.00 0.04 0.00 89 1043.7
20260831225448 63 157 2.6 4.3 0.00 0.04 0.00 89 1078.4
20260831224948 63 180 0.0 4.3 0.00 0.04 0.00 89 1081.5
20260831224448 63 180 1.7 5.2 0.00 0.04 0.00 89 1030.2
20260831223948 63 247 3.5 7.8 0.00 0.04 0.00 89 1065.8
20260831223647 63 202 1.7 7.8 0.00 0.04 0.00 89 1086.3
20260831223448 63 180 3.5 3.5 0.00 0.04 0.00 89 1059.5
20260831222948 63 180 1.7 4.3 0.00 0.04 0.00 89 1062.7
20260831222448 63 157 3.5 5.2 0.00 0.04 0.00 89 1080.0
20260831221948 63 112 1.7 3.5 0.00 0.04 0.00 89 1072.1
20260831221448 64 180 1.7 4.3 0.00 0.04 0.00 88 1053.2
20260831220948 64 157 1.7 3.5 0.00 0.04 0.00 88 1090.9
20260831220519 64 157 1.7 2.6 0.00 0.04 0.00 88 1078.4
20260831220448 64 157 1.7 2.6 0.00 0.04 0.00 88 1078.4
20260831220347 64 157 0.0 3.5 0.00 0.04 0.00 88 1075.2
20260831215948 64 180 1.7 3.5 0.00 0.04 0.00 88 1075.2
20260831215448 64 202 3.5 6.1 0.00 0.04 0.00 88 1069.0
20260831214948 64 247 3.5 6.1 0.00 0.04 0.00 88 1040.5
20260831214448 64 180 1.7 6.1 0.00 0.04 0.00 88 1072.1
20260831213948 64 157 2.6 4.3 0.00 0.04 0.00 88 1062.7
20260831213448 64 157 2.6 3.5 0.00 0.04 0.00 88 1062.7
20260831213047 64 135 1.7 3.5 0.00 0.04 0.00 88 1056.4
20260831212948 64 157 0.0 3.5 0.00 0.04 0.00 88 1050.1
20260831212448 64 180 1.7 4.3 0.00 0.04 0.00 88 1062.6
20260831211948 64 135 2.6 3.5 0.00 0.04 0.00 88 1058.0
20260831211448 64 157 2.6 5.2 0.00 0.04 0.00 88 999.5
20260831210948 64 180 1.7 6.1 0.00 0.04 0.00 87 1024.0
20260831210448 64 157 3.5 4.3 0.00 0.04 0.00 87 1084.7
20260831205948 64 157 2.6 4.3 0.00 0.04 0.00 87 1053.2
20260831205747 64 157 2.6 3.5 0.00 0.04 0.00 87 1062.7
20260831205448 64 225 1.7 6.1 0.00 0.04 0.00 87 1027.1
20260831204948 64 180 1.7 5.2 0.00 0.04 0.00 87 1076.8
20260831204448 65 157 0.9 7.0 0.00 0.04 0.00 87 1051.6
20260831203948 65 180 3.5 7.0 0.00 0.04 0.00 87 1090.9
20260831203448 65 135 1.7 5.2 0.00 0.04 0.00 87 1065.8
20260831202948 65 180 1.7 7.8 0.00 0.04 0.00 87 1065.8
20260831202447 65 135 4.3 4.3 0.00 0.04 0.00 86 1014.5
20260831201948 65 157 1.7 4.3 0.00 0.04 0.00 86 1072.1
20260831201448 65 180 5.2 5.2 0.00 0.04 0.00 86 1050.7
20260831200948 65 135 2.6 6.1 0.00 0.04 0.00 86 1080.2
20260831200449 65 135 1.7 5.2 0.00 0.04 0.00 86 1070.7
20260831195948 65 135 2.6 5.2 0.00 0.04 0.00 86 1075.2
20260831195448 65 135 3.5 4.3 0.00 0.04 0.00 85 1081.5
20260831195147 65 135 2.6 4.3 0.00 0.04 0.00 85 1033.4
20260831194948 65 157 1.7 4.3 0.00 0.04 0.00 85 1047.6
20260831194448 65 135 0.9 3.5 0.00 0.04 0.00 85 1053.2
20260831193948 65 157 1.7 4.3 0.00 0.04 0.00 85 1050.1
20260831193448 65 157 2.6 4.3 0.00 0.04 0.00 85 1072.1
20260831192948 65 180 0.9 3.5 0.00 0.04 0.00 85 1069.0
20260831192449 65 157 1.7 4.3 0.00 0.04 0.00 84 1075.2
20260831191948 65 157 2.6 6.1 0.00 0.04 0.00 84 1091.5
20260831191847 65 157 3.5 6.1 0.00 0.04 0.00 84 1088.3
20260831191448 65 135 0.0 6.1 0.00 0.04 0.00 84 1081.4
20260831190948 66 180 4.3 6.1 0.00 0.04 0.00 84 1027.1
20260831190448 66 180 3.5 7.0 0.00 0.04 0.00 84 1065.8
20260831185949 66 202 1.7 6.1 0.00 0.04 0.00 84 1065.8
20260831185449 66 180 3.5 7.0 0.00 0.04 0.00 83 1059.5
20260831184949 66 157 0.9 7.0 0.00 0.04 0.00 83 1090.9
20260831184548 66 180 6.1 7.0 0.00 0.04 0.00 82 1072.1
20260831184449 66 157 1.7 5.2 0.00 0.04 0.00 82 1053.2
20260831183949 66 157 2.6 7.0 0.00 0.04 0.00 82 1065.8
20260831183449 66 202 2.6 7.0 0.00 0.04 0.00 82 1050.1
20260831182949 66 202 0.9 5.2 0.00 0.04 0.00 82 1059.5
20260831182449 67 202 2.6 6.1 0.00 0.04 0.00 82 1072.1
20260831181949 67 157 2.6 5.2 0.00 0.04 0.00 81 1075.2
20260831181449 67 202 2.6 4.3 0.00 0.04 0.00 81 1059.5
20260831181248 67 180 0.0 4.3 0.00 0.04 0.00 81 1072.1
20260831180949 67 180 2.6 6.1 0.00 0.04 0.00 81 1089.5
20260831180449 67 157 2.6 6.1 0.00 0.04 0.00 81 1028.8
20260831175949 67 157 2.6 5.2 0.00 0.04 0.00 80 1056.4
20260831175449 67 157 5.2 5.2 0.00 0.04 0.00 79 1023.5
20260831174949 68 157 3.5 3.5 0.00 0.04 0.00 79 1068.9
20260831174449 68 157 2.6 2.6 0.00 0.04 0.00 78 1080.0
20260831173948 68 180 0.0 1.7 0.00 0.04 0.00 78 1075.2
20260831173449 68 157 0.0 2.6 0.00 0.04 0.00 77 1078.4
20260831172949 69 225 0.9 2.6 0.00 0.04 0.00 77 1065.8
20260831172449 69 202 0.9 9.6 0.00 0.04 0.00 76 1065.8
20260831171949 70 202 1.7 3.5 0.00 0.04 0.00 76 1069.0
20260831171449 70 180 0.0 3.5 0.00 0.04 0.00 76 1059.5
20260831170949 70 135 1.7 4.3 0.00 0.04 0.00 76 1062.7
20260831170648 70 157 1.7 4.3 0.00 0.04 0.00 76 1076.8
20260831170449 71 202 0.9 4.3 0.00 0.04 0.00 76 1016.2
20260831165949 71 157 2.6 3.5 0.00 0.04 0.00 76 1043.8
20260831165449 71 202 0.9 3.5 0.00 0.04 0.00 76 1083.1
20260831164949 71 180 1.7 3.5 0.00 0.04 0.00 75 1059.5
20260831164449 71 202 5.2 5.2 0.00 0.04 0.00 75 1053.3
20260831163949 71 202 1.7 3.5 0.00 0.04 0.00 75 1069.0
20260831163449 72 225 1.7 4.3 0.00 0.04 0.00 75 1095.7
20260831163348 72 180 1.7 4.3 0.00 0.04 0.00 75 1073.8
20260831162949 72 202 1.7 5.2 0.00 0.04 0.00 75 1065.8
20260831162449 72 180 2.6 7.8 0.00 0.04 0.00 75 1062.7
20260831161949 72 202 1.7 5.2 0.00 0.04 0.00 76 1065.8
20260831161449 72 180 2.6 4.3 0.00 0.04 0.00 76 1078.4
20260831160949 72 202 1.7 4.3 0.00 0.04 0.00 76 1046.9
20260831160449 72 225 4.3 5.2 0.00 0.04 0.00 76 1078.4
20260831160048 72 180 1.7 6.1 0.00 0.04 0.00 75 1062.7
20260831155949 72 180 3.5 6.1 0.00 0.04 0.00 75 1075.2
20260831155449 72 157 2.6 5.2 0.00 0.04 0.00 75 1056.4
20260831154949 72 180 1.7 5.2 0.00 0.04 0.00 76 1031.9
20260831154449 72 180 1.7 5.2 0.00 0.04 0.00 76 1059.5
20260831153949 72 157 2.6 7.0 0.00 0.04 0.00 76 1030.5
20260831153449 72 180 2.6 9.6 0.00 0.04 0.00 76 1056.4
20260831152949 72 180 7.0 9.6 0.02 0.04 0.00 77 1068.9
20260831152748 72 180 5.2 9.6 0.02 0.04 0.00 77 1093.9
20260831152449 72 157 6.1 8.7 0.02 0.04 0.00 77 1076.8
20260831151949 72 180 2.6 7.0 0.02 0.04 0.00 78 1042.0
20260831151449 71 202 1.7 5.2 0.02 0.04 0.00 77 1021.2
20260831150949 71 180 3.5 7.0 0.02 0.04 0.00 77 1043.8
20260831150449 71 180 3.5 7.0 0.04 0.04 0.00 77 1072.1
20260831145949 71 135 0.0 5.2 0.04 0.04 0.00 77 1075.3
20260831145448 70 202 2.6 7.0 0.04 0.04 0.00 77 1075.3
20260831144949 70 112 7.0 8.7 0.04 0.04 0.00 76 1031.9
20260831144449 70 180 7.0 8.7 0.04 0.04 0.00 74 1047.6
20260831143949 71 157 5.2 8.7 0.04 0.04 0.00 73 1072.1
20260831143449 71 135 2.6 7.8 0.02 0.02 0.00 72 1056.4
20260831142949 71 157 1.7 3.5 0.02 0.02 0.00 70 1065.8
20260831142449 72 157 2.6 3.5 0.02 0.02 0.00 69 1059.2
20260831142148 72 157 1.7 3.5 0.02 0.02 0.00 69 1092.1
20260831141949 72 180 2.6 3.5 0.02 0.02 0.00 69 1092.9
20260831141449 73 202 2.6 5.2 0.02 0.02 0.00 69 1062.7
20260831140949 73 180 1.7 4.3 0.02 0.02 0.00 68 1056.4
20260831140449 73 180 1.7 4.3 0.00 0.00 0.00 67 1072.1
20260831135949 74 157 3.5 3.5 0.00 0.00 0.00 66 1084.6
20260831135450 74 180 1.7 2.6 0.00 0.00 0.00 66 1084.7
20260831134949 74 180 1.7 2.6 0.00 0.00 0.00 66 1073.7
20260831134848 74 157 1.7 1.7 0.00 0.00 0.00 66 1079.9
20260831134449 74 180 0.0 1.7 0.00 0.00 0.00 66 1079.9
20260831133949 74 225 0.0 0.9 0.00 0.00 0.00 65 1069.0
20260831133449 73 157 0.0 1.7 0.00 0.00 0.00 65 1056.4
20260831132949 73 22 0.0 3.5 0.00 0.00 0.00 65 1068.9
20260831132449 74 180 2.6 2.6 0.00 0.00 0.00 65 1072.1
20260831131949 73 180 2.6 3.5 0.00 0.00 0.00 64 1075.2
20260831131548 73 225 2.6 2.6 0.00 0.00 0.00 64 1061.0
20260831131449 73 247 0.0 4.3 0.00 0.00 0.00 63 1046.9
20260831130949 74 180 4.3 4.3 0.00 0.00 0.00 63 1040.6
20260831130449 74 157 4.3 7.0 0.00 0.00 0.00 61 1072.1
20260831125949 74 180 6.1 6.1 0.00 0.00 0.00 60 1053.2
20260831125449 75 202 4.3 10.4 0.00 0.00 0.00 58 1053.2
20260831124949 76 202 7.0 14.8 0.00 0.00 0.00 57 1090.9
20260831124449 78 202 9.6 14.8 0.00 0.00 0.00 54 1081.5
20260831124248 78 225 8.7 18.2 0.00 0.00 0.00 53 1075.3
20260831123949 79 225 14.8 18.2 0.00 0.00 0.00 51 1087.8
20260831123449 80 225 12.2 12.2 0.00 0.00 0.00 48 1065.8
20260831122949 81 225 6.1 12.2 0.00 0.00 0.00 47 1084.8
20260831122449 82 247 7.8 7.8 0.00 0.00 0.00 46 1035.1
20260831121950 82 202 2.6 6.1 0.00 0.00 0.00 46 1042.9
20260831121449 82 180 0.9 4.3 0.00 0.00 0.00 45 1068.9
20260831120948 83 202 1.7 4.3 0.00 0.00 0.00 44 1075.3
20260831120449 84 202 2.6 5.2 0.00 0.00 0.00 44 988.6
20260831115949 84 225 2.6 3.5 0.00 0.00 0.00 43 1080.5
20260831115449 84 202 1.7 2.6 0.00 0.00 0.00 43 1062.6
20260831114949 85 225 2.6 4.3 0.00 0.00 0.00 42 1065.8
20260831114449 85 202 3.5 5.2 0.00 0.00 0.00 42 1078.4
20260831113949 85 157 3.5 5.2 0.00 0.00 0.00 42 1056.4
20260831113648 86 202 2.6 5.2 0.00 0.00 0.00 42 1056.4
20260831113449 86 157 3.5 5.2 0.00 0.00 0.00 41 1050.1
20260831112949 86 225 2.6 5.2 0.00 0.00 0.00 41 1065.8
20260831112449 87 157 1.7 5.2 0.00 0.00 0.00 41 1061.1
20260831111949 87 225 3.5 5.2 0.00 0.00 0.00 40 1062.7
20260831111449 88 202 6.1 9.6 0.00 0.00 0.00 40 1097.2